Content
SEND FEEDBACK

Daily
Averages
Monthly
Summary
United States of America

UMATAC, GUAM


Home > North America > United States > Guam
Elevation: 190 feet     Latitude: 13 17N     Longitude: 144 40E

WEATHER
 
SELECT A DAY
Number of Records: 350,245;   Date Range: 1/1/95 - 9/30/14
 
SHARE

PRINT THIS DATA

[ ← Previous Day ]
WEATHER ALMANAC - JANUARY 5, 2013
[ Next Day → ]
[ °C ]   °F
Weather ElementAverageHighLow
Temperature79.9 °F84.2 °F (10:12 am)76.6 °F (1:55 am)
Dewpoint72.2 °F74.1 °F (11:55 pm)70.2 °F (4:55 pm)
Humidity77.5 %89 % (2:41 am)65 % (2:55 pm)
Barometer29.78 in29.82 in (10:44 pm)29.73 in (3:55 am)
Wind Speed18.5 mph26.5 mph (10:44 pm)
Wind Gust31.1 mph (10:12 am)
Weather ElementAverage
Visibility9.9 mi
Wind DirectionENE (54.3 °)

Weather ElementTotal
Precipitation---
Cooling Degree Days15.4 (Base 65)
Growing Degree Days30.4 (Base 50)
Averaged from 40 records on January 5, 2013
WEATHER CONDITIONS BREAKOUT
WIND DIRECTION BREAKOUT
WEATHER BY HOUR - JANUARY 5, 2013
[ °C ]   °F
Local TimeTemperatureDewpointHumidityBarometerVisibilityWind DirectionWind SpeedGust SpeedPrecipitationEventsConditions
1:55 AM76.6 °F71.4 °F84 %29.75 in10.0 miENE (60°)9.2 mphPartly Cloudy
2:27 AM77.0 °F71.6 °F83 %29.74 in10.0 miENE (60°)11.5 mphMostly Cloudy
2:34 AM77.0 °F71.6 °F83 %29.74 in10.0 miENE (60°)11.5 mphScattered Clouds
2:37 AM77.0 °F71.6 °F83 %29.74 in10.0 miENE (60°)11.5 mphMostly Cloudy
2:41 AM77.0 °F73.4 °F89 %29.74 in10.0 miENE (60°)10.4 mphScattered Clouds
2:55 AM77.0 °F71.6 °F83 %29.74 in10.0 miENE (60°)11.5 mphScattered Clouds
3:55 AM77.0 °F71.2 °F82 %29.73 in10.0 miNE (50°)12.7 mphClear
4:55 AM78.1 °F72.9 °F84 %29.75 in10.0 miNE (50°)16.1 mphScattered Clouds
5:55 AM78.3 °F72.7 °F83 %29.75 in10.0 miENE (60°)17.3 mphPartly Cloudy
6:55 AM78.3 °F72.0 °F81 %29.78 in10.0 miENE (60°)17.3 mphPartly Cloudy
7:55 AM79.5 °F72.5 °F79 %29.79 in10.0 miENE (60°)17.3 mphPartly Cloudy
8:55 AM81.3 °F72.9 °F75 %29.81 in10.0 miENE (60°)19.6 mphPartly Cloudy
9:55 AM82.6 °F72.7 °F72 %29.81 in10.0 miNE (50°)23.0 mph27.6 mphPartly Cloudy
10:12 AM84.2 °F71.6 °F66 %29.81 in10.0 miENE (60°)21.9 mph31.1 mphMostly Cloudy
10:14 AM84.2 °F71.6 °F66 %29.81 in10.0 miENE (60°)24.2 mph31.1 mphScattered Clouds
10:55 AM83.3 °F73.6 °F72 %29.80 in10.0 miENE (60°)19.6 mph26.5 mphPartly Cloudy
11:55 AM84.0 °F73.9 °F72 %29.77 in10.0 miNE (50°)21.9 mphScattered Clouds
12:28 PM84.2 °F73.4 °F70 %29.76 in10.0 miENE (60°)23.0 mphMostly Cloudy
12:55 PM82.9 °F72.3 °F70 %29.75 in10.0 miNE (50°)21.9 mph26.5 mphMostly Cloudy
12:57 PM82.4 °F71.6 °F70 %29.75 in10.0 miNE (50°)21.9 mph26.5 mphScattered Clouds
1:55 PM83.5 °F72.5 °F69 %29.73 in10.0 miNE (50°)19.6 mph27.6 mphScattered Clouds
2:55 PM83.8 °F70.9 °F65 %29.73 in10.0 miNE (50°)20.7 mph26.5 mphScattered Clouds
3:55 PM82.8 °F70.5 °F66 %29.73 in10.0 miNE (40°)20.7 mphClear
4:55 PM81.3 °F70.2 °F69 %29.74 in10.0 miNE (50°)20.7 mph27.6 mphPartly Cloudy
5:55 PM79.9 °F71.6 °F76 %29.76 in10.0 miNE (50°)20.7 mphPartly Cloudy
6:55 PM79.3 °F71.4 °F77 %29.78 in10.0 miENE (60°)20.7 mphMostly Cloudy
7:55 PM79.5 °F72.5 °F79 %29.80 in10.0 miNE (50°)19.6 mph27.6 mphScattered Clouds
8:40 PM78.8 °F71.6 °F78 %29.81 in9.0 miNE (50°)19.6 mphRainLight Rain
8:49 PM78.8 °F71.6 °F78 %29.81 in10.0 miNE (50°)19.6 mphLight Drizzle
8:50 PM78.8 °F71.6 °F78 %29.81 in10.0 miNE (50°)20.7 mphMostly Cloudy
8:55 PM78.8 °F71.6 °F78 %29.81 in10.0 miENE (60°)19.6 mph0.00 inMostly Cloudy
9:07 PM78.8 °F71.6 °F78 %29.81 in10.0 miNE (50°)19.6 mphOvercast
9:52 PM80.6 °F71.6 °F74 %29.81 in10.0 miNE (50°)19.6 mph26.5 mphOvercast
9:55 PM79.7 °F72.7 °F79 %29.81 in10.0 miNE (50°)18.4 mph26.5 mphOvercast
10:44 PM78.8 °F73.4 °F83 %29.82 in10.0 miENE (60°)26.5 mph29.9 mphLight Drizzle
10:55 PM77.9 °F73.9 °F88 %29.82 in8.0 miNE (50°)19.6 mph0.00 inRainLight Rain
10:56 PM78.8 °F73.4 °F83 %29.82 in10.0 miNE (50°)18.4 mphMostly Cloudy
11:00 PM78.8 °F73.4 °F83 %29.82 in10.0 miNE (50°)16.1 mphMostly Cloudy
11:31 PM78.8 °F73.4 °F83 %29.82 in10.0 miNE (50°)18.4 mphMostly Cloudy
11:55 PM78.1 °F74.1 °F88 %29.81 in10.0 miENE (60°)17.3 mphMostly Cloudy
Hourly data recorded from PGUA, located miles away from Umatac, Guam







STORIES FROM OUR PARTNERS